Location: Poughquag
(41.6090°N, 73.6820°W)
Time: 05:19:46
(UTC-04:00)

STARLINK-1355 - Pass Details

Date: 29 May 2020
Orbit: 549 x 551 km, 53.0° (Epoch: 26 September)

Event Time Altitude Azimuth Distance (km) Brightness Sun altitude
Exits shadow 01:41:43 30° 305° (NW) 1,011 5.1 -25.7°
Maximum altitude 01:42:41 33° 334° (NNW) 928 5.1 -25.6°
Drops below altitude 10° 01:46:28 10° 40° (NE) 1,824 7.1 -25.5°
Enters shadow 02:49:04 -60° 252° (WSW) 11,626 10.3 -21.1°
